Total_Precipitation_Accumulation
1.64 1.64 1.54 1.59 1.56 1.73 1.91 2.19 2.13 2.37 2.34 2.07 1.75 1.55 1.49 1.40 1.26 1.42 1.69 1.80 1.68 1.74 2.40 2.81 2.69 2.41 2.05 1.68 1.45 1.37 1.26 1.09 0.92 0.71 0.62 0.64 0.65 0.68 0.59 0.45 0.37 0.31 0.24
2.16 2.10 1.91 1.87 1.77 1.84 2.10 2.36 2.39 2.74 2.59 2.44 1.98 1.83 1.66 1.50 1.44 1.57 1.72 1.95 1.94 1.95 2.25 2.69 2.92 2.84 2.50 2.02 1.65 1.44 1.36 1.29 1.15 0.86 0.69 0.66 0.70 0.74 0.68 0.58 0.46 0.36 0.28
2.35 2.23 2.08 2.00 2.11 2.26 2.40 2.43 2.52 2.80 2.55 2.42 2.18 2.02 1.83 1.62 1.50 1.65 1.81 2.02 1.89 1.89 2.16 2.49 2.84 2.82 2.64 2.38 1.98 1.72 1.54 1.42 1.35 1.08 0.81 0.69 0.68 0.70 0.69 0.66 0.55 0.41 0.28
2.40 2.43 2.19 2.03 2.30 2.45 2.59 2.68 2.65 2.69 2.65 2.57 2.39 2.06 1.86 1.75 1.54 1.60 1.66 1.76 1.83 1.53 1.83 2.35 2.52 2.42 2.45 2.54 2.48 2.36 2.10 1.77 1.59 1.31 1.00 0.83 0.76 0.74 0.72 0.69 0.60 0.42 0.26
2.34 2.59 2.36 2.33 2.50 2.69 2.60 2.43 2.71 2.81 2.68 2.63 2.36 2.16 1.78 1.62 1.55 1.48 1.49 1.52 1.65 1.61 1.56 1.75 2.18 2.12 2.32 2.62 2.78 2.88 2.73 2.39 2.02 1.69 1.36 1.12 1.02 0.90 0.76 0.70 0.63 0.44 0.28
2.32 2.57 2.35 2.40 2.61 2.74 2.76 2.75 2.80 2.79 2.64 2.67 2.39 2.11 1.77 1.44 1.40 1.34 1.25 1.33 1.37 1.24 1.26 1.37 1.66 1.53 1.72 2.07 2.44 2.80 3.03 3.04 2.64 2.13 1.88 1.69 1.53 1.25 0.93 0.72 0.60 0.50 0.37
2.23 2.50 2.23 2.52 2.67 2.65 2.74 2.77 2.90 2.77 2.60 2.77 2.62 2.11 1.63 1.34 1.17 1.05 1.07 1.13 1.08 1.15 1.32 1.53 1.72 1.72 1.56 1.58 1.77 2.17 2.76 3.26 3.18 2.71 2.46 2.31 2.13 1.76 1.21 0.89 0.63 0.50 0.44
2.13 2.30 2.56 2.60 2.67 2.68 2.70 2.68 2.70 2.50 2.32 2.66 2.65 2.40 1.80 1.41 1.09 0.92 1.05 1.01 1.05 1.25 1.27 1.32 1.56 1.79 1.68 1.69 1.56 1.53 2.24 3.02 3.35 3.26 3.16 3.01 2.74 2.12 1.52 1.14 0.77 0.56 0.49
2.23 2.36 2.53 2.62 2.54 2.45 2.48 2.59 2.50 2.35 2.17 2.31 2.58 2.57 2.05 1.54 1.18 0.97 1.00 1.03 1.27 1.38 1.24 1.20 1.18 1.24 1.32 1.62 1.86 1.67 1.78 2.07 2.59 3.27 3.63 3.66 3.17 2.25 1.63 1.33 1.08 0.76 0.56
1.98 2.09 2.17 2.33 2.39 2.38 2.34 2.31 2.29 2.30 2.20 2.07 2.32 2.40 2.24 1.96 1.66 1.18 0.95 0.99 1.22 1.30 1.22 1.10 1.10 1.18 1.26 1.52 1.77 1.61 1.45 1.34 1.52 2.26 2.99 3.18 2.88 2.14 1.64 1.48 1.47 1.20 0.79
1.81 1.81 1.92 2.11 2.16 2.09 2.07 2.22 2.38 2.35 2.18 2.02 2.11 2.21 2.35 2.28 1.98 1.60 1.15 1.07 1.08 1.02 1.12 1.12 1.11 1.16 1.30 1.52 1.66 1.43 1.42 1.23 1.12 1.36 1.85 2.24 2.34 2.06 1.72 1.67 1.83 1.75 1.37
1.74 1.68 1.71 1.83 1.90 1.89 1.86 1.90 2.01 2.04 2.01 2.08 2.11 2.12 2.22 2.20 2.09 1.97 1.54 1.30 1.16 0.89 0.95 1.01 1.08 1.11 1.20 1.33 1.25 1.27 1.34 1.16 1.03 1.01 1.18 1.45 1.71 1.82 1.73 1.80 1.99 2.03 1.89
1.68 1.65 1.59 1.55 1.55 1.59 1.68 1.82 1.84 1.85 1.93 2.03 2.04 2.08 2.01 1.95 2.02 2.02 1.81 1.52 1.32 1.00 0.99 0.94 0.97 1.03 1.02 1.22 1.28 1.34 1.22 1.03 0.93 0.91 0.95 1.05 1.21 1.36 1.50 1.63 1.86 2.05 2.12
1.63 1.52 1.39 1.34 1.33 1.36 1.45 1.61 1.78 1.79 1.88 1.92 1.88 1.93 1.83 1.75 1.89 1.86 1.81 1.80 1.62 1.42 1.36 1.18 0.96 0.94 0.99 1.06 1.15 1.22 1.10 1.03 0.88 0.78 0.76 0.82 0.92 1.03 1.15 1.33 1.52 1.63 1.73
1.34 1.30 1.27 1.26 1.22 1.25 1.29 1.33 1.45 1.47 1.56 1.62 1.70 1.67 1.58 1.59 1.69 1.73 1.82 1.88 1.82 1.66 1.61 1.50 1.16 0.94 0.97 1.05 1.24 1.11 1.00 0.92 0.85 0.78 0.67 0.67 0.71 0.78 0.87 0.97 1.13 1.25 1.28
1.23 1.17 1.18 1.18 1.13 1.11 1.13 1.17 1.20 1.26 1.24 1.29 1.47 1.49 1.48 1.50 1.61 1.64 1.70 1.84 1.93 1.93 1.75 1.58 1.40 1.12 1.10 1.01 1.12 1.11 1.06 0.98 0.83 0.72 0.62 0.60 0.62 0.66 0.74 0.80 0.88 1.00 1.05
1.16 1.17 1.14 1.10 1.01 0.95 0.94 0.97 0.98 1.08 1.09 1.08 1.17 1.20 1.26 1.37 1.51 1.57 1.61 1.67 1.87 2.03 1.91 1.81 1.69 1.55 1.40 1.24 1.09 1.07 1.07 1.01 0.84 0.71 0.58 0.54 0.58 0.61 0.64 0.70 0.78 0.86 0.93
0.91 0.93 0.93 0.99 1.02 1.00 0.98 0.97 0.93 0.91 0.97 0.99 1.06 1.16 1.22 1.35 1.46 1.44 1.53 1.61 1.80 2.02 2.08 2.21 2.26 2.01 1.70 1.47 1.35 1.20 0.98 0.88 0.87 0.75 0.60 0.53 0.52 0.55 0.57 0.62 0.68 0.79 0.89
0.82 0.82 0.83 0.86 0.88 0.97 1.07 1.10 1.07 1.08 1.10 1.02 1.08 1.17 1.16 1.20 1.29 1.31 1.43 1.56 1.71 1.86 2.03 2.13 2.26 2.09 1.90 1.61 1.60 1.41 1.16 1.07 0.86 0.81 0.70 0.59 0.54 0.53 0.54 0.59 0.64 0.70 0.78
0.84 0.83 0.79 0.79 0.82 0.83 0.90 1.04 1.10 1.10 1.07 1.03 1.02 1.02 0.99 1.00 1.09 1.18 1.23 1.40 1.55 1.69 1.81 1.86 2.01 2.07 2.09 2.06 1.98 1.75 1.57 1.37 1.12 0.88 0.83 0.66 0.59 0.56 0.54 0.54 0.58 0.65 0.75
0.77 0.81 0.74 0.71 0.77 0.81 0.79 0.81 0.93 0.96 0.96 0.94 0.96 0.89 0.77 0.78 0.82 0.86 0.93 1.16 1.33 1.47 1.62 1.72 1.86 2.04 2.15 2.26 2.12 1.99 1.87 1.74 1.49 1.29 1.26 0.98 0.83 0.69 0.59 0.57 0.57 0.59 0.65
0.73 0.73 0.68 0.66 0.67 0.61 0.62 0.59 0.61 0.70 0.76 0.78 0.82 0.84 0.75 0.65 0.60 0.62 0.65 0.77 0.96 1.12 1.35 1.61 1.79 2.01 2.09 2.06 2.17 2.17 2.10 1.96 1.83 1.65 1.60 1.57 1.39 1.21 0.97 0.72 0.66 0.59 0.55
0.71 0.69 0.64 0.60 0.60 0.59 0.47 0.41 0.41 0.51 0.61 0.64 0.69 0.74 0.66 0.59 0.57 0.53 0.58 0.65 0.70 0.78 0.92 1.23 1.51 1.63 1.65 1.65 1.88 2.08 2.07 2.00 1.97 1.86 1.84 1.93 1.82 1.57 1.20 0.99 0.87 0.70 0.61
0.69 0.69 0.64 0.61 0.64 0.60 0.46 0.38 0.34 0.35 0.48 0.58 0.61 0.66 0.68 0.69 0.61 0.59 0.59 0.64 0.62 0.61 0.64 0.72 0.88 1.03 1.21 1.35 1.57 1.86 2.10 2.08 2.11 2.08 1.99 2.13 2.04 1.88 1.52 1.17 0.97 0.75 0.67
0.63 0.64 0.66 0.66 0.67 0.65 0.46 0.36 0.34 0.41 0.53 0.57 0.60 0.60 0.64 0.68 0.62 0.52 0.54 0.59 0.62 0.63 0.57 0.58 0.62 0.75 0.90 1.05 1.24 1.49 1.75 2.02 2.28 2.31 2.08 2.11 2.10 2.09 2.06 1.65 1.22 0.97 0.77
0.66 0.62 0.64 0.68 0.67 0.71 0.51 0.32 0.29 0.42 0.59 0.65 0.73 0.72 0.58 0.54 0.53 0.41 0.44 0.54 0.55 0.56 0.52 0.55 0.58 0.61 0.66 0.80 0.94 1.14 1.33 1.56 1.82 2.01 1.98 2.01 2.15 2.39 2.54 2.15 1.59 1.16 0.93